Regional Weather Roundup
Issued by NWS

Home | Current Version | Previous Version | Text Only | Print | Product List | Glossary Off
Versions: 1 2 3 4 5 6 7 8 9 10 11 12 13 14 15 16 17 18 19 20 21 22 23 24 25 26 27 28 29 30 31 32 33 34 35 36 37 38 39 40 41 42 43 44 45 46 47 48 49 50

535
ASUS44 KMEG 220800
RWRTN
TENNESSEE HOURLY STATE WEATHER ROUNDUP
NATIONAL WEATHER SERVICE MEMPHIS TN
200 AM CST MON JAN 22 2018

TNZ002-004-019-021-049-052-054-088>092-220900-
WEST TENNESSEE

CITY           SKY/WX    TMP DP  RH WIND       PRES   REMARKS
MEMPHIS INTL   CLOUDY    63  49  60 S21G29    29.82F
NWS MEMPHIS      N/A     62 N/A N/A MISG        N/A
JACKSON        FAIR      61  47  59 S12G21    29.86F
DYERSBURG      FAIR      61  48  62 SE14G20   29.81F
$$

TNZ008-025-027-028-033-062-065-066-220900-
NORTH MIDDLE TENNESSEE

CITY           SKY/WX    TMP DP  RH WIND       PRES   REMARKS
NASHVILLE      CLOUDY    58  43  57 S10       29.98F
CLARKSVILLE    MOCLDY    59  42  53 S9        29.94S
SMYRNA         FAIR      56  44  64 S10       30.01F
CROSSVILLE     FAIR      54  41  61 S10       30.09R
$$

TNZ061-075-076-078-094-096-097-220900-
SOUTH MIDDLE TENNESSEE

CITY           SKY/WX    TMP DP  RH WIND       PRES   REMARKS
$$

TNZ017-018-042-046-047-220900-
NORTHEAST TENNESSEE

CITY           SKY/WX    TMP DP  RH WIND       PRES   REMARKS
TRI CITIES     FAIR      34  34 100 CALM      30.13F
$$

TNZ012-013-036-069-073-074-220900-
CENTRAL EAST TENNESSEE

CITY           SKY/WX    TMP DP  RH WIND       PRES   REMARKS
KNOXVILLE      FAIR      40  38  93 CALM      30.10S
OAK RIDGE      FAIR      40  39  97 CALM      30.11F
$$

TNZ083-085-099-220900-
SOUTHEAST TENNESSEE

CITY           SKY/WX    TMP DP  RH WIND       PRES   REMARKS
CHATTANOOGA    FAIR      43  38  82 CALM      30.10S
$$

SKY/WX REPORTED AS FAIR MEANS FEW OR NO CLOUDS BELOW
12 THOUSAND FEET.





USA.gov is the U.S. government's official web portal to all federal, state and local government web resources and services.